Location: Houston
(29.7630°N, 95.3630°W)
Time: 15:41:46
(UTC-05:00)

Daily predictions for brighter satellites

Satellite Brightness Start Highest point End
(mag) Time Altitude Azimuth Time Altitude Azimuth Time Altitude Azimuth
ASTEX 1 3.6 20:43:33 10° S 20:48:26 80° W 20:53:21 10° N
Cosmos 1733 3.3 20:45:35 10° N 20:49:28 82° W 20:53:19 10° S
Resurs 01 Rocket 1.7 20:46:05 10° SSE 20:50:26 64° ENE 20:54:47 10° N
Cosmos 2227 Rocket 2.5 20:46:28 10° SSW 20:52:06 76° WNW 20:57:46 10° NNE
Cosmos 1470 3.0 20:49:00 10° N 20:52:56 76° W 20:56:49 10° S
CZ-2D R/B 3.2 20:49:44 10° SSE 20:53:30 68° ENE 20:57:19 10° N
H-2A ROCKET BODY 2.8 20:56:59 10° SSE 20:58:03 12° SE 20:59:26 10° ESE
Resurs 1-3 3.6 20:54:33 10° SSE 20:58:55 72° ENE 21:03:16 10° N
Cosmos 1821 Rocket 4.1 20:52:49 10° N 20:59:14 86° E 21:05:33 10° S
Cosmos 2084 3.7 20:55:19 10° S 20:59:14 41° ESE 21:02:57 10° NE
Atlas Centaur 2 1.1 20:55:30 10° W 20:59:22 80° N 21:02:55 10° E
Meteor 1-24 Rocket 3.9 20:54:31 10° S 21:00:23 61° E 21:06:06 10° NNE
Meteor 1-16 Rocket 4.4 20:56:18 10° N 21:02:07 63° E 21:07:59 10° SSE
Aureole 2 Rocket 3.0 20:59:36 10° N 21:03:28 48° ENE 21:07:04 10° SSE
COSMOS 2428 3.8 20:59:27 10° NW 21:04:51 44° WSW 21:10:12 10° S
Helios 1A 4.1 21:02:04 10° SE 21:05:36 28° ENE 21:09:07 10° NNE
Helios 1B rocket 2.9 21:02:24 10° NNE 21:06:20 41° E 21:10:13 10° S
SL-16 R/B 3.7 21:03:33 10° NNE 21:07:43 21° ENE 21:11:44 11° ESE
Envisat 3.3 21:05:36 10° SSE 21:10:29 51° ENE 21:15:24 10° N
Cosmos 1934 Rocket 3.9 21:05:17 10° N 21:11:26 82° E 21:17:29 10° S
DELTA 2 R/B (1) 4.1 21:09:26 10° WNW 21:14:51 51° SW 21:19:43 13° SE
Meteor 1-29 3.5 21:11:54 10° NNE 21:15:07 36° E 21:18:19 10° SSE
Lacrosse 4 Rocket 4.1 21:11:54 10° WSW 21:15:21 24° WNW 21:18:53 10° N
Meteor 2-15 Rocket 4.5 21:11:05 10° S 21:17:01 59° E 21:22:58 10° NNE
Cosmos 1140 Rocket 3.7 21:13:10 10° SSW 21:18:21 77° WNW 21:23:31 10° NNE
Cosmos 1842 Rocket 3.6 21:17:46 10° N 21:22:07 61° E 21:26:16 11° SSE
Cosmos 1605 Rocket 4.0 21:17:34 10° N 21:23:50 69° E 21:30:09 10° SSE
Cosmos 2219 Rocket 2.9 21:18:27 10° NNW 21:23:57 54° WSW 21:29:23 10° S
USA 32 4.1 21:21:35 10° S 21:26:43 61° E 21:31:53 10° N
SJ-11-01 4.4 21:25:16 13° SSE 21:29:28 61° ENE 21:34:10 10° N
CZ-4B DEB 3.4 21:28:56 23° ESE 21:30:08 33° ENE 21:32:51 10° N
Cosmos 2333 Rocket 2.7 21:24:42 10° NNW 21:30:15 60° WSW 21:35:45 10° S
Skynet4D Del rocket 3.9 21:25:32 10° W 21:31:11 61° S 21:36:05 18° ESE
Cosmos 1356 Rocket 4.3 21:29:06 18° SE 21:31:32 31° E 21:35:19 10° NNE
Meteor 2-1 Rocket 4.3 21:27:53 10° N 21:33:37 60° E 21:38:15 15° SSE
Cosmos 1242 Rocket 4.4 21:31:58 10° NE 21:34:21 16° ENE 21:34:53 16° E
Cosmos 1727 Rocket 4.1 21:30:22 10° S 21:36:39 84° W 21:43:01 10° N
GPS 2-05 Rocket1 2.8 21:36:18 10° SW 21:39:15 45° SSE 21:40:21 30° E
Cosmos 1076 Rocket 3.9 21:38:27 19° SSE 21:41:10 43° E 21:45:19 10° NNE
OAO 3 Rocket 4.3 21:37:20 10° W 21:41:23 29° SSW 21:43:49 19° SSE
Cosmos 1867 3.6 21:37:21 10° SSW 21:42:47 86° WNW 21:48:15 10° NNE
Cosmos 2297 Rocket 4.4 21:47:58 10° WSW 21:52:40 27° WNW 21:57:25 10° N
Cosmos 1850 Rocket 4.5 21:49:23 10° SSW 21:54:28 61° WNW 21:59:36 10° N
Meteor 1-21 Rocket 4.2 21:50:42 13° S 21:55:45 65° E 22:01:19 10° NNE
Cosmos 2221 2.5 21:55:55 10° N 22:00:18 68° E 22:02:03 35° SSE
Okean 3 Rocket 3.9 21:56:49 10° SSW 22:01:18 70° W 22:05:46 10° N
Cosmos 2263 Rocket 3.7 22:04:26 18° E 22:04:26 18° E 22:06:59 10° ENE
YAOGAN 6 2.7 22:02:07 32° S 22:03:38 70° W 22:07:16 10° NNW
ERS-1 Rocket 3.0 22:01:44 32° SE 22:03:58 62° ENE 22:08:56 10° N
USA 234 3.2 21:58:05 10° NE 22:04:38 88° NW 22:11:10 10° SW
Cosmos 1939 Rocket 3.9 22:01:55 16° SSW 22:04:46 42° W 22:08:36 10° NNW
ATLAS 5 CENTAUR R/B 4.0 22:05:48 10° WSW 22:09:41 27° NW 22:13:48 10° N
Cosmos 2016 Rocket 4.5 22:04:50 10° N 22:10:41 41° E 22:12:32 33° ESE
H-2A R/B 3.2 22:10:15 25° E 22:11:18 27° ENE 22:15:43 10° NNE
Cosmos 1726 3.9 22:10:48 10° NNE 22:12:45 20° ENE 22:12:45 20° ENE
Sakura Rocket 4.0 22:06:36 10° W 22:15:01 81° S 22:18:33 28° E
Cosmos 1766 Rocket 3.4 22:15:19 45° S 22:16:36 78° E 22:20:56 10° N
Terra 3.9 22:19:38 13° ENE 22:19:38 13° ENE 22:21:45 10° NE
YAOGAN 11 4.4 22:22:06 47° E 22:22:31 48° ENE 22:26:53 10° N
USA 245 4.1 22:24:12 34° NE 22:24:12 34° NE 22:26:53 10° N
Cosmos 1818 3.5 22:19:10 10° NNW 22:24:36 73° ENE 22:26:01 49° SE
SEDSat Delta rocket 4.2 22:22:48 10° W 22:26:06 26° SW 22:26:06 26° SW
Palapa 6 Rocket 4.1 22:22:44 10° WSW 22:26:27 30° SSW 22:26:27 30° SSW
Cosmos 2237 Rocket 4.0 22:22:56 10° NW 22:27:27 25° WSW 22:31:36 12° SSW
SL-08 RB Rocket 4.0 22:28:02 48° E 22:28:15 48° ENE 22:32:39 10° N
Cosmos 1674 4.3 22:30:15 18° SW 22:32:27 31° W 22:35:50 10° NNW
Cosmos 1743 Rocket 4.1 22:33:39 42° ENE 22:33:39 42° ENE 22:37:03 10° NNE
H-2A R/B 4.4 22:34:10 12° NE 22:34:10 12° NE 22:35:07 10° NE
NOSS 3-4 (A) 4.4 22:27:21 10° NW 22:34:21 53° WSW 22:38:13 28° S
NOSS 3-4 (C) 4.4 22:27:26 10° NW 22:34:28 53° WSW 22:38:17 29° S
Cosmos 1603 4.3 22:29:52 10° N 22:35:08 40° ENE 22:35:50 38° E
Cosmos 2228 Rocket 4.1 22:33:31 10° NNE 22:37:00 33° ENE 22:37:00 33° ENE
Delta 2 Rocket 4.1 22:32:08 10° WSW 22:37:52 81° NNW 22:41:58 20° ENE
Cosmos 1908 4.2 22:39:24 10° NNW 22:43:02 41° W 22:43:23 39° WSW
ARGOS 3.1 22:43:02 58° S 22:44:10 87° WSW 22:49:36 10° NNW
MetOp-A 4.3 22:42:43 45° SSW 22:44:15 65° WSW 22:49:35 10° NNW
Atlas Centaur 2 2.7 22:44:25 10° W 22:46:12 26° W 22:46:12 26° W
Cosmos 1459 Rocket 4.4 22:44:29 10° NNW 22:50:35 57° W 22:53:13 33° SSW
Cosmos 1943 4.5 22:46:32 10° N 22:51:13 26° ENE 22:51:21 26° ENE
SL-16 R/B 3.1 22:46:39 10° NW 22:51:56 41° WSW 22:53:38 33° SW
DMSP B5D2-2 3.9 22:48:34 10° NNE 22:53:40 71° E 22:53:40 71° E
Cosmos 2123 Rocket 4.0 22:55:40 43° SSW 22:57:49 73° W 23:04:00 10° N
Milstar 3 Cent rocket 4.0 22:52:26 10° W 23:00:34 60° SSW 23:06:12 40° SE
Cosmos 1486 Rocket 4.0 23:00:58 72° SW 23:01:25 80° WNW 23:06:44 10° NNE
Cosmos 1814 Rocket 4.3 22:56:48 10° N 23:01:39 54° NE 23:01:39 54° NE
SPOT 1/Viking Rocket 3.5 23:06:11 80° W 23:06:11 80° W 23:11:18 10° NNW
Cosmos 841 Rocket 4.4 23:08:35 10° N 23:12:35 37° NE 23:12:35 37° NE
Meteor 1-11 4.2 23:14:28 83° SW 23:14:39 85° W 23:20:30 10° N
Cosmos 1763 Rocket 4.0 23:11:00 10° N 23:15:02 48° NNE 23:15:02 48° NNE
Cosmos 2058 4.5 23:18:05 32° N 23:18:05 32° N 23:20:24 10° N
SPOT 5 3.8 23:16:56 39° W 23:16:57 39° W 23:21:34 10° NNW
IUS-18 SRM-1 4.5 22:30:56 10° W 23:21:31 77° SSW 23:23:52 55° SE
Cosmos 371 Rocket 4.0 23:20:47 10° NNW 23:24:25 51° NNW 23:24:25 51° NNW
Lacrosse 5 2.6 23:21:54 10° NNW 23:25:53 48° N 23:25:53 48° N
Cosmos 1725 Rocket 4.2 23:21:34 10° NNW 23:27:40 60° W 23:28:17 57° WSW
RESURS DK-1 4.3 23:31:52 10° NNW 23:34:01 28° NW 23:34:01 28° NW
Meteor 1-27 4.4 23:30:25 10° N 23:35:26 68° N 23:35:26 68° N
CZ-4C R/B 4.1 23:41:35 18° NE 23:41:35 18° NE 23:43:08 10° NE
Cosmos 2263 Rocket 3.1 23:46:03 39° W 23:46:40 41° WNW 23:51:55 10° N
H-2A R/B 3.6 23:50:53 28° W 23:50:53 28° W 23:55:06 10° NW
